Terminal Aerodrome Forecast
Issued by NWS Pittsburgh, PA

Current Version | Previous Version | Graphics & Text | Print | Product List | Glossary On
Versions: 1 2 3 4 5 6 7 8 9 10 11 12 13 14 15 16 17 18 19 20 21 22 23 24 25 26 27 28
000
FTUS41 KPBZ 010800 AAB
TAFPIT
TAF AMD
KPIT 010855Z 0109/0212 00000KT 5SM BR SKC
     FM011400 VRB03KT P6SM FEW050
     FM012100 17007KT P6SM VCTS BKN050CB
     FM020300 15004KT P6SM BKN035=

USA.gov is the U.S. government's official web portal to all federal, state and local government web resources and services.